28 Oct
2007
28 Oct
'07
1:37 p.m.
ISS (ZARYA) 1 25544U 98067A 07300.90939573 .00014099 00000-0 92667-4 0 2412 2 25544 51.6371 139.4786 0002573 139.5015 1.9355 15.76020103511717
6265
Age (days ago)
6265
Last active (days ago)
0 comments
1 participants
participants (1)
-
Arthur Rowe